DMSP 5D-2 F13 DEB, 40677

Orbit data source: Space-Track

DMSP 5D-2 F13 DEB, 40677 is space debris in SSO originally from a launch on Fri, 24 Mar 1995 UTC launched from the Air Force Western Test Range (AFWTR). Debris objects in space refer to the collection of defunct objects orbiting the Earth. Examples of debris include non-operational satellites, rocket bodies, and fragments generated from explosions, collisions, or faulty payload assembly.

Loading next visibility...
Identifier
40677, 1995-015FR
Orbit
SSO
Country
Flag of USUS
Related business
Manufacturer
Unknown
Mission
Spacecraft
Bus & Motor
Unknown
Mass
Unknown
Launch date (UTC)
1995-03-24 (31 years ago)
Launch vehicle
Unknown
Launch site
Air Force Western Test Range (AFWTR)
Object type
Payload
Rocket body
Debris
Shape & HBR
Unknown shape, 0.1 m
Radar Cross Section
Small (<0.1 m²)

Expand to show TLE details & history
Last TLE update: 2 weeks ago

TLE from 2 weeks ago
0 DMSP 5D-2 F13 DEB
1 40677U 95015FR  26161.78287703  .00000385  00000-0  17038-3 0  9990
2 40677  98.5872 178.7399 0046758 283.8204  75.7777 14.28128207579518
Epoch: 2026-06-10T18:47Z
TLE epoch observation values (Epoch: 2026-06-10T18:47:20.575Z)
Latitude
-0.00001°
Longitude
-2.23191°
Altitude
792.826 km
Speed
7.461 km/s
True Right ascension
11h 54m 57s
True Declination
0° 00' 00"
Sunlit
Object was in daylight at epoch
Visualization orbit readout
Latitude
Unknown
Longitude
Unknown
Altitude
Unknown
Speed
Unknown
Apparent Right ascension
Unknown
Apparent Declination
Unknown
Sunlit
N/A
Visualization observer readout
Local Sidereal Time
17:57:47
Azimuth
Unknown
Elevation
Unknown
Doppler factor
Unknown
Orbital elements
Apogee altitude
828.677 km
Perigee altitude
761.595 km
Semi-major axis
7,173.273 km
Eccentricity
0.00468
Inclination
98.5872°
RAAN
178.7399°
Arg. of periapsis
283.8204°
True anomaly
76.29782°
Mean anomaly
75.7777°
Eccentric anomaly
76.03769°
Mean motion
3.57246 °/min
Orbital period
100.77 mins
BSTAR
0.00017038

Documentation

Showing up to 5 results
|